Content
SEND FEEDBACK

Daily
Averages
Monthly
Summary
United States of America

POCAHONTAS, ARKANSAS


Home > North America > United States > Arkansas
Elevation: 315 feet     Latitude: 36 16N     Longitude: 090 58W

WEATHER
 
SELECT A DAY
Number of Records: 463,393;   Date Range: 1/1/95 - 10/20/14
 
SHARE

PRINT THIS DATA

[ ← Previous Day ]
WEATHER ALMANAC - JANUARY 31, 2013
[ Next Day → ]
[ °C ]   °F
Weather ElementAverageHighLow
Temperature34.7 °F53.6 °F (3:15 pm) (6:35 pm)
Dewpoint23 °F33.8 °F (2:16 pm) (7:00 pm)
Humidity62.3 %80 % (7:55 am)38 % (3:15 pm)
Barometer30.14 in30.39 in (11:16 pm)30.04 in (1:15 am)
Wind Speed14 mph28.8 mph (6:35 pm)
Wind Gust35.7 mph (7:15 pm)
Weather ElementAverage
Visibility10 mi
Wind DirectionW (268.7 °)

Weather ElementTotal
Precipitation---
Heating Degree Days38.2 (Base 65)
Averaged from 60 records on January 31, 2013
WEATHER CONDITIONS BREAKOUT
WIND DIRECTION BREAKOUT
WEATHER BY HOUR - JANUARY 31, 2013
[ °C ]   °F
Local TimeTemperatureDewpointHumidityBarometerVisibilityWind DirectionWind SpeedGust SpeedPrecipitationEventsConditions
1:15 AM30.2 °F21.2 °F69 %30.04 in10.0 miWest (280°)13.8 mph18.4 mphClear
1:35 AM30.2 °F21.2 °F69 %30.04 in10.0 miWest (280°)11.5 mphClear
1:55 AM30.2 °F21.2 °F69 %30.04 in10.0 miWNW (290°)11.5 mphClear
2:16 AM30.2 °F21.2 °F69 %30.05 in10.0 miWNW (290°)10.4 mph17.3 mphClear
2:35 AM30.2 °F21.2 °F69 %30.05 in10.0 miWest (280°)11.5 mphClear
2:55 AM30.2 °F21.2 °F69 %30.05 in10.0 miWest (270°)10.4 mphClear
3:35 AM28.4 °F21.2 °F74 %30.05 in10.0 miWest (270°)8.1 mphClear
3:55 AM28.4 °F21.2 °F74 %30.05 in10.0 miWest (280°)8.1 mphClear
4:15 AM28.4 °F21.2 °F74 %30.06 in10.0 miWest (270°)8.1 mphClear
4:36 AM28.4 °F21.2 °F74 %30.05 in10.0 miWest (270°)6.9 mphClear
4:55 AM28.4 °F21.2 °F74 %30.07 in10.0 miWest (260°)9.2 mphClear
5:15 AM28.4 °F21.2 °F74 %30.07 in10.0 miWest (270°)6.9 mphClear
5:35 AM28.4 °F21.2 °F74 %30.08 in10.0 miWSW (250°)9.2 mphClear
5:55 AM28.4 °F21.2 °F74 %30.08 in10.0 miWSW (240°)6.9 mphClear
6:15 AM28.4 °F21.2 °F74 %30.10 in10.0 miWSW (240°)5.8 mphClear
6:35 AM28.4 °F21.2 °F74 %30.10 in10.0 miWSW (250°)8.1 mphClear
7:15 AM28.4 °F21.2 °F74 %30.12 in10.0 miSW (230°)8.1 mphClear
7:35 AM28.4 °F21.2 °F74 %30.12 in10.0 miSW (220°)8.1 mphClear
7:55 AM28.4 °F23.0 °F80 %30.14 in10.0 miSW (220°)9.2 mphClear
8:35 AM30.2 °F23.0 °F75 %30.13 in10.0 miSW (220°)13.8 mphClear
9:15 AM33.8 °F24.8 °F70 %30.14 in10.0 miSSW (210°)15.0 mphClear
9:35 AM33.8 °F24.8 °F70 %30.15 in10.0 miSSW (210°)13.8 mphClear
9:55 AM35.6 °F24.8 °F65 %30.16 in10.0 miSW (220°)15.0 mphClear
9:56 AM35.6 °F24.8 °F65 %30.16 in10.0 miSW (220°)15.0 mphClear
10:15 AM35.6 °F24.8 °F65 %30.16 in10.0 miSW (230°)11.5 mphClear
10:35 AM37.4 °F26.6 °F65 %30.14 in10.0 miSouth (190°)11.5 mphClear
11:15 AM39.2 °F28.4 °F65 %30.13 in10.0 miSSW (200°)15.0 mphClear
11:35 AM39.2 °F28.4 °F65 %30.13 in10.0 miSSW (210°)11.5 mphClear
11:55 AM41.0 °F30.2 °F65 %30.11 in10.0 miSW (220°)11.5 mphClear
12:16 PM42.8 °F30.2 °F61 %30.10 in10.0 miSW (230°)12.7 mphClear
12:35 PM44.6 °F30.2 °F57 %30.09 in10.0 miSSW (210°)13.8 mphClear
12:55 PM44.6 °F30.2 °F57 %30.07 in10.0 miSSW (210°)16.1 mphClear
1:16 PM46.4 °F32.0 °F57 %30.06 in10.0 miSSW (210°)15.0 mphClear
1:35 PM48.2 °F32.0 °F54 %30.05 in10.0 miSSW (210°)16.1 mphClear
1:55 PM48.2 °F32.0 °F54 %30.06 in10.0 miSW (230°)12.7 mphClear
2:16 PM50.0 °F33.8 °F54 %30.06 in10.0 miSW (230°)10.4 mph17.3 mphClear
2:35 PM51.8 °F32.0 °F47 %30.06 in10.0 miWest (270°)5.8 mphClear
2:55 PM51.8 °F28.4 °F41 %30.06 in10.0 miWNW (300°)11.5 mphClear
3:15 PM53.6 °F28.4 °F38 %30.07 in10.0 miWNW (290°)13.8 mph18.4 mphClear
3:35 PM53.6 °F28.4 °F38 %30.07 in10.0 miWNW (300°)19.6 mph24.2 mphClear
3:55 PM51.8 °F28.4 °F41 %30.08 in10.0 miWNW (290°)13.8 mph20.7 mphClear
4:15 PM51.8 °F30.2 °F44 %30.08 in10.0 miNW (310°)12.7 mphPartly Cloudy
4:35 PM48.2 °F30.2 °F50 %30.09 in10.0 miNW (310°)13.8 mphMostly Cloudy
4:55 PM48.2 °F30.2 °F50 %30.10 in10.0 miNW (320°)13.8 mphMostly Cloudy
5:35 PM46.4 °F28.4 °F50 %30.14 in10.0 miWNW (300°)19.6 mph24.2 mphMostly Cloudy
5:55 PM44.6 °F30.2 °F57 %30.15 in10.0 miNNW (330°)19.6 mphScattered Clouds
6:16 PM42.8 °F30.2 °F61 %30.18 in10.0 miNNW (330°)23.0 mph28.8 mphScattered Clouds
6:35 PM0.0 °F0.0 °F30.20 in10.0 miNW (310°)28.8 mph34.5 mphScattered Clouds
6:55 PM0.0 °F0.0 °F30.21 in10.0 miNW (310°)23.0 mph32.2 mphMostly Cloudy
7:15 PM0.0 °F0.0 °F30.21 in10.0 miNW (310°)28.8 mph35.7 mphPartly Cloudy
7:35 PM35.6 °F26.6 °F70 %30.23 in10.0 miNW (310°)24.2 mph28.8 mphScattered Clouds
8:15 PM33.8 °F24.8 °F70 %30.27 in10.0 miNW (310°)17.3 mph25.3 mphMostly Cloudy
8:35 PM33.8 °F24.8 °F70 %30.29 in10.0 miNW (310°)18.4 mph24.2 mphOvercast
9:15 PM30.2 °F19.4 °F64 %30.32 in10.0 miNNW (330°)17.3 mph26.5 mphScattered Clouds
9:35 PM30.2 °F15.8 °F55 %30.34 in10.0 miNNW (330°)21.9 mph26.5 mphClear
10:16 PM28.4 °F10.4 °F47 %30.36 in10.0 miNW (320°)21.9 mph27.6 mphClear
10:35 PM26.6 °F10.4 °F51 %30.38 in10.0 miNNW (330°)18.4 mphClear
10:55 PM26.6 °F12.2 °F55 %30.38 in10.0 miNNW (330°)12.7 mphClear
11:16 PM26.6 °F12.2 °F55 %30.39 in10.0 miNNW (330°)12.7 mphClear
11:35 PM26.6 °F10.4 °F51 %30.39 in9.0 miNW (320°)25.3 mph29.9 mphClear
Hourly data recorded from KARG, located miles away from Pocahontas, Arkansas







STORIES FROM OUR PARTNERS